Regional Weather Roundup
Issued by NWS State College, PA

Home | Current Version | Previous Version | Graphics & Text | Print | Product List | Glossary Off
Versions: 1 2 3 4 5 6 7 8 9 10 11 12 13 14 15 16 17 18 19 20 21 22 23 24 25 26 27 28 29 30 31 32 33 34 35 36 37 38 39 40 41 42 43 44 45 46 47 48 49 50

000
ASUS41 KCTP 201803
RWRCTP

REGIONAL WEATHER ROUNDUP
NATIONAL WEATHER SERVICE STATE COLLEGE PA
100 PM EST MON NOV 20 2017

Note: "fair" indicates few or no clouds below 12,000 feet with no
significant weather and/or obstructions to visibility.

* = STATION THAT DOES NOT REPORT PRECIPITATION /E.G. RAIN...SNOW...ETC/
    THUNDER OR FOG.

PAZ002>004-007>009-013>016-020>023-029>032-201900-
WESTERN PENNSYLVANIA

CITY           SKY/WX    TMP DP  RH WIND       PRES   REMARKS
ERIE           SUNNY     41  26  55 S17       30.01F
MEADVILLE      SUNNY     36  26  67 S14G22    30.02F
FRANKLIN*      NOT AVBL
NEW CASTLE     FAIR      40  23  50 SW12G17   30.08F
BEAVER COUNTY  SUNNY    N/A N/A N/A SW14      30.09F
BUTLER*        SUNNY     38  22  52 SW9       30.09F
PITTSBURGH INT MOSUNNY   39  22  50 SW13      30.10F
PITTSBURGH     SUNNY     39  21  48 SW16      30.10F
INDIANA*       SUNNY     39  25  56 W14       30.12F
LATROBE        SUNNY     37  23  56 SW17G25   30.13F
WASHINGTON CO* SUNNY     40  23  50 SW14      30.15F
$$

PAZ004>006-010>012-017>019-024>028-033>037-041-042-045-046-049>053-201900-
CENTRAL PENNSYLVANIA

CITY           SKY/WX    TMP DP  RH WIND       PRES   REMARKS
BRADFORD       SUNNY     33  24  69 W9G18     29.97F
DUBOIS         SUNNY     34  23  64 W15       30.02F
CLEARFIELD     SUNNY     39  24  55 SW14G21   30.04F
JOHNSTOWN      SUNNY     34  21  59 W16       30.04F
ALTOONA        SUNNY     43  24  47 W13       30.07F
STATE COLLEGE  SUNNY     41  25  52 W17       30.05F
WILLIAMSPORT   MOSUNNY   44  26  49 SW14      30.04F
SELINSGROVE    SUNNY     44  26  49 W9        30.08F
FT INDIANTOWN  MOSUNNY   45  22  39 W13G20    30.08F
CAPITAL CITY   SUNNY     46  20  35 W14       30.11F
HARRISBURG     MOSUNNY   46  23  40 W14G22    30.10F
YORK           SUNNY     44  23  43 SW13      30.12F
$$

PAZ038>040-043-044-047-048-054-055-060>062-067>071-201900-
EASTERN PENNSYLVANIA

CITY           SKY/WX    TMP DP  RH WIND       PRES   REMARKS
SCRANTON       CLOUDY    39  25  57 SW15      30.01F
MOUNT POCONO   NOT AVBL
ALLENTOWN      SUNNY     45  24  43 W15G25    30.05F
QUAKERTOWN*    CLEAR     45  23  42 W10G18    30.07S
READING        SUNNY     45  27  49 W16G23    30.07F
LANCASTER      SUNNY     45  25  45 SW15G24   30.10F
COATESVILLE    CLEAR     43  23  45 VRB7G15   30.11S
POTTSTOWN      SUNNY     44  24  45 W12G22    30.11S
BLUE BELL      SUNNY     43  25  49 W12G17    30.10S
DOYLESTOWN     SUNNY     45  23  42 W9G20     30.06S
WILLOW GROVE   NOT AVBL
NORTH PHILA    SUNNY     48  24  39 W14G22    30.11R
PHILADELPHIA   MOSUNNY   46  22  38 W22G28    30.12R
$$



USA.gov is the U.S. government's official web portal to all federal, state and local government web resources and services.